Weather History for Punta Gorda, FL

Change the Weather History Date:

Wednesday, November 21, 2012

  Actual Average Record
Temperature  
Mean Temperature 66 °F -  
Max Temperature 75 °F 77 °F 86 °F (1998)
Min Temperature 54 °F 56 °F 44 °F (2000)
Cooling Degree Days 1    
Growing Degree Days 16 (Base 50)    
Moisture  
Dew Point 51 °F    
Average Humidity 68    
Maximum Humidity 93    
Minimum Humidity 38    
Precipitation  
Precipitation 0.01 in - - ()
Sea Level Pressure  
Sea Level Pressure 30.06 in    
Wind  
Wind Speed 7 mph (North)    
Max Wind Speed 15 mph    
Max Gust Speed 21 mph    
Visibility 10 miles    
Events      
Averages and records for this station are not official NWS values.
T = Trace of Precipitation, MM = Missing Value Source: NWS Daily Summary

Daily Weather History Graph

Daily Weather History Graph

Search for Another Location

Airport:

Trip Planner

Search our weather history database for the weather conditions in past years. The results will help you decide how hot, cold, wet, or windy it might be!

Date:

Astronomy

Nov. 21, 2012 Rise Set
Actual Time 6:52 AM EST 5:35 PM EST
Civil Twilight 6:27 AM EST 5:59 PM EST
Nautical Twilight 5:59 AM EST 6:28 PM EST
Astronomical Twilight 5:31 AM EST 6:56 PM EST
Moon 1:20 PM EST (11/21) 12:44 AM EST (11/21)
Length of Visible Light 11h 32m
Length of Day
10h 42m
First Quarter, 61% of the Moon is Illuminated
Nov 21
First Quarter
Nov 28
Full
Dec 6
Last Quarter
Dec 13
New
Dec 20
First Quarter

Hourly Weather History & Observations

Time (EST) Temp. Dew Point Humidity Pressure Visibility Wind Dir Wind Speed Gust Speed Precip Events Conditions
12:53 AM 57.9 °F 55.0 °F 90% 30.05 in 9.0 mi NNW 4.6 mph - N/A   Clear
1:53 AM 57.0 °F 54.0 °F 89% 30.05 in 8.0 mi Calm Calm - N/A   Clear
2:53 AM 57.0 °F 55.0 °F 93% 30.04 in 8.0 mi NNW 6.9 mph - N/A   Clear
3:53 AM 57.0 °F 54.0 °F 89% 30.04 in 8.0 mi North 5.8 mph - 0.01 in   Clear
4:53 AM 57.0 °F 54.0 °F 89% 30.04 in 9.0 mi North 5.8 mph - N/A   Clear
5:53 AM 57.0 °F 53.1 °F 87% 30.06 in 10.0 mi North 8.1 mph - N/A   Clear
6:53 AM 57.0 °F 53.1 °F 87% 30.07 in 9.0 mi North 6.9 mph - N/A   Clear
7:53 AM 59.0 °F 54.0 °F 83% 30.09 in 10.0 mi North 9.2 mph - N/A   Clear
8:53 AM 64.9 °F 55.0 °F 70% 30.09 in 10.0 mi NNE 13.8 mph - N/A   Clear
9:53 AM 70.0 °F 53.1 °F 55% 30.10 in 10.0 mi North 15.0 mph - N/A   Clear
10:53 AM 72.0 °F 51.1 °F 48% 30.09 in 10.0 mi NNE 15.0 mph - N/A   Clear
11:53 AM 73.9 °F 51.1 °F 45% 30.06 in 10.0 mi North 11.5 mph 20.7 mph N/A   Clear
12:53 PM 75.0 °F 50.0 °F 41% 30.04 in 10.0 mi North 11.5 mph - N/A   Clear
1:53 PM 75.9 °F 48.9 °F 38% 30.02 in 10.0 mi NNE 11.5 mph 19.6 mph N/A   Clear
2:53 PM 75.9 °F 48.9 °F 38% 30.01 in 10.0 mi North 12.7 mph - N/A   Clear
3:53 PM 73.9 °F 46.9 °F 38% 30.01 in 10.0 mi NNE 12.7 mph 18.4 mph N/A   Clear
4:53 PM 72.0 °F 46.0 °F 40% 30.02 in 10.0 mi NNE 9.2 mph - N/A   Clear
5:53 PM 64.0 °F 46.9 °F 54% 30.03 in 10.0 mi North 4.6 mph - N/A   Clear
6:53 PM 63.0 °F 48.0 °F 58% 30.05 in 10.0 mi North 3.5 mph - N/A   Clear
7:53 PM 60.1 °F 48.9 °F 67% 30.07 in 10.0 mi NNE 4.6 mph - N/A   Clear
8:53 PM 59.0 °F 51.1 °F 75% 30.09 in 10.0 mi NNW 6.9 mph - N/A   Clear
9:53 PM 60.1 °F 53.1 °F 78% 30.10 in 10.0 mi North 8.1 mph - N/A   Clear
10:53 PM 57.0 °F 52.0 °F 83% 30.12 in 10.0 mi NNE 5.8 mph - N/A   Clear
11:53 PM 54.0 °F 51.1 °F 90% 30.12 in 10.0 mi NNE 3.5 mph - N/A   Clear